Weather History for Lone Rock, WI

Change the Weather History Date:

Monday, January 6, 2014

  Actual Average Record
Temperature  
Mean Temperature -14 °F -  
Max Temperature -9 °F 26 °F 48 °F (2012)
Min Temperature -18 °F 12 °F -18 °F (2014)
Degree Days  
Heating Degree Days 78    
Moisture  
Dew Point -23 °F    
Average Humidity 60    
Maximum Humidity 75    
Minimum Humidity 50    
Precipitation  
Precipitation 0.00 in - - ()
Sea Level Pressure  
Sea Level Pressure 30.24 in    
Wind  
Wind Speed 16 mph (WNW)    
Max Wind Speed 22 mph    
Max Gust Speed 29 mph    
Visibility 8 miles    
Events Snow    
Averages and records for this station are not official NWS values.
T = Trace of Precipitation, MM = Missing Value Source: NWS Daily Summary

Daily Weather History Graph

Daily Weather History Graph

Search for Another Location

Airport:

Trip Planner

Search our weather history database for the weather conditions in past years. The results will help you decide how hot, cold, wet, or windy it might be!

Date:

Astronomy

Jan. 06, 2014 Rise Set
Actual Time 7:32 AM CST 4:40 PM CST
Civil Twilight 7:00 AM CST 5:13 PM CST
Nautical Twilight 6:24 AM CST 5:48 PM CST
Astronomical Twilight 5:50 AM CST 6:23 PM CST
Moon 10:37 AM CST (1/6) 11:25 PM CST (1/6)
Length of Visible Light 10h 12m
Length of Day
9h 08m
Waxing Crescent, 35% of the Moon is Illuminated
Jan 6
Waxing Crescent
Jan 7
First Quarter
Jan 15
Full
Jan 23
Last Quarter
Jan 30
New

Hourly Weather History & Observations

Time (CST) Temp. Windchill Dew Point Humidity Pressure Visibility Wind Dir Wind Speed Gust Speed Precip Events Conditions
12:11 AM -9.0 °F -32.4 °F -20.9 °F 56% 30.17 in 3.0 mi WNW 17.3 mph 25.3 mph N/A   Haze
12:56 AM -9.9 °F -31.3 °F -20.9 °F 59% 30.22 in 8.0 mi NW 13.8 mph 21.9 mph N/A   Scattered Clouds
1:05 AM -9.9 °F -33.5 °F -20.0 °F 61% 30.17 in 5.0 mi WNW 17.3 mph 23.0 mph N/A   Haze
1:48 AM -9.9 °F -34.8 °F -20.9 °F 59% 30.17 in 4.0 mi WNW 19.6 mph - N/A   Haze
1:56 AM -9.9 °F -34.8 °F -20.0 °F 61% 30.22 in 5.0 mi WNW 19.6 mph 24.2 mph N/A   Haze
2:10 AM -11.0 °F -34.2 °F -18.9 °F 68% 30.17 in 2.5 mi WNW 16.1 mph - 0.00 in Snow Light Snow
2:19 AM -11.0 °F -32.7 °F -20.0 °F 64% 30.17 in 5.0 mi WNW 13.8 mph - 0.00 in   Haze
2:56 AM -11.9 °F -38.6 °F -22.0 °F 61% 30.23 in 4.0 mi WNW 21.9 mph - 0.00 in   Haze
3:17 AM -13.0 °F -38.8 °F -23.1 °F 61% 30.18 in 8.0 mi WNW 19.6 mph 27.6 mph N/A   Overcast
3:33 AM -13.0 °F -36.8 °F -23.1 °F 61% 30.17 in 9.0 mi WNW 16.1 mph - N/A   Overcast
3:56 AM -14.1 °F -40.2 °F -24.0 °F 61% 30.23 in 7.0 mi WNW 19.6 mph 25.3 mph N/A   Overcast
4:56 AM -15.0 °F -42.6 °F -26.0 °F 58% 30.24 in 10.0 mi WNW 21.9 mph - N/A   Mostly Cloudy
5:56 AM -17.0 °F -43.3 °F -27.9 °F 58% 30.25 in 7.0 mi WNW 18.4 mph 28.8 mph N/A   Mostly Cloudy
6:56 AM -18.0 °F -43.3 °F -29.0 °F 57% 30.27 in 10.0 mi West 16.1 mph - N/A   Clear
7:56 AM -18.9 °F -44.4 °F -29.9 °F 57% 30.27 in 10.0 mi WNW 16.1 mph 25.3 mph N/A   Clear
8:56 AM -18.9 °F -44.4 °F -29.9 °F 57% 30.29 in 10.0 mi West 16.1 mph - N/A   Clear
9:56 AM -18.0 °F -40.7 °F -29.0 °F 57% 30.29 in 10.0 mi WNW 12.7 mph - N/A   Partly Cloudy
10:56 AM -16.1 °F -40.7 °F -27.9 °F 55% 30.28 in 10.0 mi West 16.1 mph - N/A   Clear
11:56 AM -14.1 °F -38.9 °F -26.0 °F 55% 30.25 in 10.0 mi WNW 17.3 mph 23.0 mph N/A   Scattered Clouds
12:56 PM -11.9 °F -36.8 °F -26.0 °F 50% 30.24 in 10.0 mi West 18.4 mph - N/A   Clear
1:56 PM -11.9 °F -33.0 °F -24.0 °F 55% 30.24 in 10.0 mi West 12.7 mph 21.9 mph N/A   Clear
2:56 PM -9.9 °F -34.2 °F -24.0 °F 50% 30.25 in 10.0 mi WNW 18.4 mph - N/A   Clear
3:56 PM -9.9 °F -34.8 °F -23.1 °F 52% 30.26 in 9.0 mi West 19.6 mph 25.3 mph N/A   Partly Cloudy
4:34 PM -11.0 °F -32.7 °F -22.0 °F 58% 30.21 in 8.0 mi West 13.8 mph - N/A   Mostly Cloudy
4:56 PM -11.0 °F -32.7 °F -20.9 °F 62% 30.27 in 6.0 mi West 13.8 mph - N/A   Haze
5:56 PM -11.9 °F -33.0 °F -20.9 °F 64% 30.27 in 9.0 mi West 12.7 mph - N/A   Mostly Cloudy
6:56 PM -11.9 °F -32.0 °F -20.9 °F 64% 30.28 in 9.0 mi West 11.5 mph - N/A   Overcast
7:56 PM -11.9 °F -33.8 °F -22.0 °F 61% 30.27 in 10.0 mi West 13.8 mph - N/A   Scattered Clouds
8:56 PM -11.9 °F -33.0 °F -22.0 °F 61% 30.27 in 10.0 mi West 12.7 mph - N/A   Clear
9:56 PM -15.0 °F -34.8 °F -23.1 °F 67% 30.27 in 10.0 mi West 10.4 mph - N/A   Clear
10:56 PM -14.1 °F -31.3 °F -22.0 °F 68% 30.26 in 10.0 mi West 8.1 mph - N/A   Clear
11:56 PM -15.0 °F -29.3 °F -20.9 °F 75% 30.25 in 10.0 mi West 5.8 mph - N/A   Clear